Regional Weather Roundup
Issued by NWS

Home | Current Version | Previous Version | Text Only | Print | Product List | Glossary Off
Versions: 1 2 3 4 5 6 7 8 9 10 11 12 13 14 15 16 17 18 19 20 21 22 23 24 25 26 27 28 29 30 31 32 33 34 35 36 37 38 39 40 41 42 43 44 45 46 47 48 49 50

043
ASUS45 KPSR 101110
RWRAZ

ARIZONA HOURLY REGIONAL WEATHER ROUNDUP
NATIONAL WEATHER SERVICE PHOENIX AZ
400 AM MST WED FEB 10 2016

NOTE: FAIR INDICATES FEW OR NO CLOUDS BELOW 12,000 FEET WITH NO
SIGNIFICANT WEATHER AND/OR OBSTRUCTIONS TO VISIBILITY.

AZZ001>003-036-101200-
NORTHWEST ARIZONA

CITY           SKY/WX    TMP DP  RH WIND       PRES   REMARKS
KINGMAN        PTCLDY    40  23  50 CALM      30.28F
$$

AZZ004>008-015-016-018-101200-
NORTH CENTRAL ARIZONA

CITY           SKY/WX    TMP DP  RH WIND       PRES   REMARKS
GRAND CANYON   PTCLDY    23  17  78 NE6       30.42F WCI  16
WILLIAMS       PTCLDY    28  16  59 S9        30.46S WCI  20
PRESCOTT       PTCLDY    31  18  58 S8        30.36S WCI  23
FLAGSTAFF      CLEAR     23  15  71 CALM      30.42S
PAYSON         CLEAR     45  16  31 CALM      30.36S
PAGE           CLEAR     32  26  78 CALM      30.41F
$$

AZZ009>014-017-101200-
NORTHEAST ARIZONA

CITY           SKY/WX    TMP DP  RH WIND       PRES   REMARKS
WINSLOW        PTCLDY    24  18  77 CALM      30.41S
SAINT JOHNS    CLEAR     26  17  68 S3        30.40S
WINDOW ROCK    CLEAR     24   0  35 CALM      30.43F
SHOW LOW       CLEAR     25  16  68 CALM      30.42S
$$

AZZ023-101200-
GREATER PHOENIX AREA

CITY           SKY/WX    TMP DP  RH WIND       PRES   REMARKS
PHOENIX        CLEAR     57  31  37 CALM      30.15S
BUCKEYE        CLEAR     52  25  35 NE7       30.18R
LUKE AFB       CLEAR     50  29  43 N9        30.15S
DEER VALLEY    CLEAR     55  19  24 CALM      30.17R
SCOTTSDALE     CLEAR     53  24  32 NW3       30.17S
MESA-GATEWAY   CLEAR     48  30  49 CALM      30.17S
$$

AZZ027-028-101200-
SOUTHWEST MARICOPA COUNTY AND PINAL COUNTY

CITY           SKY/WX    TMP DP  RH WIND       PRES   REMARKS
CASA GRANDE    CLEAR     52  25  35 CALM      30.17S
GILA BEND      FAIR      54  27  35 E8        30.14R
$$

AZZ503-504-507>509-101200-
SOUTHEAST ARIZONA

CITY           SKY/WX    TMP DP  RH WIND       PRES   REMARKS
TUCSON         CLEAR     51  20  29 S5        30.21F
DAVIS-MONTHAN  CLEAR     55  20  25 SE10      30.19F
NOGALES        CLEAR     50  17  27 NW5       30.24S
SIERRA VISTA   PTCLDY    42  17  36 SE7       30.30S
DOUGLAS        PTCLDY    33  17  51 VRB5      30.29S WCI  29
SAFFORD        CLEAR     48  25  40 SE7       30.29S
$$

AZZ020-021-025-026-031-101200-
SOUTHWEST ARIZONA

CITY           SKY/WX    TMP DP  RH WIND       PRES   REMARKS
YUMA           CLEAR     64  24  21 N6        30.12F
$$

CAZ031-033-041-043-047-048-061-101200-
SOUTHERN CALIFORNIA

CITY           SKY/WX    TMP DP  RH WIND       PRES   REMARKS
DOWNTOWN L.A.  CLEAR     66  28  24 N3        30.11R
L.A. AIRPORT   PTCLDY    63  33  32 CALM      30.11S
SAN DIEGO      CLEAR     61  35  37 N3        30.12R
BURBANK        CLEAR     62  25  24 CALM      30.13R
ONTARIO        PTCLDY    56  30  37 E5        30.14S
RIVERSIDE      CLEAR     54  29  38 CALM      30.15S
PALM SPRINGS   CLEAR     61  25  25 NW7       30.15F
EL CENTRO NAS  CLEAR     53  23  31 W9        30.13F
IMPERIAL       CLEAR     51  30  44 W5        30.11F
BLYTHE         CLEAR     56  24  29 SW3       30.15F
NEEDLES        PTCLDY    58  27  30 NW8       30.19S
$$

NVZ020-UTZ003-101200-
SOUTHERN NEVADA-UTAH

CITY           SKY/WX    TMP DP  RH WIND       PRES   REMARKS
LAS VEGAS      MOCLDY    50  28  42 SW3       30.24R
SALT LAKE CITY FOG       27  25  92 N8        30.46S VSB 1/2 WCI  19
$$

NMZ009-TXZ055-101200-
NEW MEXICO-WEST TEXAS

CITY           SKY/WX    TMP DP  RH WIND       PRES   REMARKS
ALBUQUERQUE    CLOUDY    35  21  56 N6        30.39F WCI  30
EL PASO        CLEAR     37  18  46 NE5       30.34S WCI  33
$$


........................KEY........................
SKY/WX - SKY CONDITION/WEATHER
TMP    - TEMPERATURE IN FAHRENHEIT
DP     - DEW POINT IN FAHRENHEIT
RH     - RELATIVE HUMIDITY IN PERCENT
WIND   - DIRECTION AND SPEED IN MILES PER HOUR (MPH)
VRB    - VARIABLE WIND DIRECTION
PRES   - MEAN SEA LEVEL PRESSURE IN INCHES OF MERCURY
         F - FALLING PRESSURE   R - RISING PRESSURE
         S - STEADY PRESSURE
VSB    - VISIBILITY IN MILES
HX     - HEAT INDEX IN FAHRENHEIT
WCI    - WIND CHILL INDEX IN FAHRENHEIT
TC     - TEMPERATURE IN CELSIUS WHICH IS ALSO KNOWN AS
         TEMPERATURE IN CENTIGRADE
AFB    - AIR FORCE BASE
         LUKE AFB IS LUKE AIR FORCE BASE
         DAVIS-MONTHAN IS DAVIS-MONTHAN AIR FORCE BASE
NAS    - NAVAL AIR STATION
         EL CENTRO NAS IS EL CENTRO NAVAL AIR STATION
N/A    - NOT AVAILABLE





USA.gov is the U.S. government's official web portal to all federal, state and local government web resources and services.